GFSNIL_925_temp_039.txt.gz
Temp
14 15 14 14 13 12 11 10 9 9 8 8 8 7 7 7 6 6 6 5 5 4
15 14 13 12 12 12 11 10 9 8 8 7 7 7 7 6 6 6 5 5 4 4
15 14 13 12 12 11 11 10 9 8 8 7 8 8 6 6 6 5 5 4 4 3
13 13 13 12 12 11 11 10 9 8 8 8 8 7 6 6 6 5 5 4 4 3
13 13 13 12 12 11 10 9 9 8 8 8 7 7 6 6 5 5 4 4 3 2
13 12 12 10 10 10 9 8 8 8 8 7 7 6 6 6 5 5 4 3 3 2
10 10 10 10 9 8 8 8 8 8 7 7 6 6 6 6 5 4 4 3 2 2
9 10 10 8 8 7 6 6 5 6 5 6 5 5 6 5 5 4 3 2 2 1
10 9 8 7 6 5 4 4 4 4 3 4 5 4 5 5 5 4 3 2 1 1
8 7 6 5 4 4 4 4 4 3 3 4 4 4 4 5 4 3 2 2 1 0
6 5 5 4 4 4 3 2 2 3 3 3 4 4 4 4 3 2 2 1 0 -0
4 4 4 5 4 3 2 2 3 3 3 3 3 3 3 3 2 2 1 -0 -1 -1
3 2 3 3 2 2 3 3 3 3 3 3 3 3 2 2 2 1 0 -0 -2 -2
4 4 3 2 2 2 2 2 3 3 3 2 2 2 2 1 1 1 0 -0 -1 -2

GFSNIL_925_temp_042.txt.gz
Temp
14 14 13 13 13 12 12 11 10 9 8 8 9 8 8 8 7 6 6 6 5 5
14 14 13 13 12 12 11 10 9 9 9 10 8 7 7 7 7 7 6 5 5 4
14 14 13 12 12 12 11 11 10 8 9 7 7 7 7 7 7 6 6 5 4 4
14 13 11 11 12 12 11 10 9 8 8 8 7 7 6 7 6 6 5 4 4 3
13 12 10 10 10 10 9 9 9 8 8 7 6 5 6 6 6 6 5 5 3 3
11 10 10 9 9 10 9 9 7 8 7 6 5 6 6 6 6 6 5 4 4 3
9 9 9 9 9 9 9 8 7 6 5 5 5 4 5 5 5 5 5 4 3 3
9 9 9 9 8 7 6 5 5 4 3 3 3 3 4 3 4 5 5 4 3 3
8 8 8 7 6 5 4 4 4 4 3 2 2 3 3 4 4 4 4 3 3 2
8 7 6 5 4 3 3 4 3 3 2 2 3 3 4 4 4 4 3 3 2 1
5 5 4 4 4 3 3 3 2 2 3 3 3 3 3 3 3 3 3 2 1 1
4 4 4 3 3 3 2 2 2 3 3 3 3 3 3 2 2 2 2 1 1 0
4 4 4 4 3 2 2 2 2 3 3 2 2 2 2 2 2 2 1 1 0 -0
4 4 3 3 2 2 2 2 2 2 2 2 2 2 2 1 1 1 1 0 -0 -0

GFSNIL_925_temp_045.txt.gz
Temp
13 13 14 14 14 13 12 12 11 10 9 9 9 8 7 7 7 7 7 7 5 5
12 14 14 14 13 13 12 12 10 9 9 8 8 7 8 7 7 7 7 6 6 5
12 13 13 13 13 12 11 12 10 9 8 8 8 8 7 7 6 7 6 6 5 4
13 13 12 12 12 11 10 8 9 7 7 8 8 6 6 6 5 6 6 6 4 4
13 12 12 11 10 9 9 8 9 7 8 7 6 6 5 5 5 5 5 6 3 4
11 11 10 9 8 9 8 7 6 7 7 5 6 5 5 4 5 5 5 5 3 3
8 8 8 8 8 8 7 7 7 7 5 5 5 5 4 4 4 4 4 4 4 3
9 8 7 6 6 7 7 6 5 5 5 5 5 3 3 2 3 3 3 4 4 4
7 7 7 7 6 6 5 4 5 5 5 4 3 2 2 2 2 3 3 3 3 3
6 6 5 5 5 4 4 4 4 4 3 2 2 2 3 3 2 2 2 3 2 2
5 4 4 4 3 3 4 4 3 3 2 2 2 3 3 2 2 3 3 3 2 1
4 3 3 3 3 3 3 3 2 2 2 2 2 2 2 2 2 2 2 2 2 1
3 4 4 4 3 3 2 2 1 2 2 2 2 2 2 2 1 1 1 1 1 1
4 3 3 2 2 2 1 1 1 2 2 2 2 2 2 2 1 0 -0 -0 0 -0

GFSNIL_925_temp_048.txt.gz
Temp
16 15 15 16 15 13 12 13 11 10 10 10 10 9 9 8 7 6 7 8 8 9
14 14 14 15 14 13 13 12 10 10 9 9 8 7 8 7 7 6 6 7 7 6
14 14 14 14 11 13 12 11 9 10 9 8 7 7 7 7 5 4 5 5 4 7
15 14 14 13 12 11 11 10 9 9 8 7 6 7 6 5 4 4 4 4 5 6
15 14 13 12 12 11 10 8 8 7 7 5 6 6 5 4 4 4 3 4 5 6
13 11 11 10 10 10 9 8 7 6 5 4 6 5 4 3 3 4 4 4 5 6
11 10 9 9 8 8 7 6 5 4 4 6 5 4 4 4 3 3 3 4 4 5
9 8 8 9 8 7 6 5 4 5 5 5 4 4 4 3 3 2 3 4 5 5
9 9 8 6 5 5 5 4 5 4 5 5 5 4 3 2 2 2 4 4 4 5
7 6 6 6 6 5 4 4 5 5 5 4 3 3 2 2 2 3 4 4 4 4
7 6 6 6 5 4 5 5 4 4 3 3 3 3 2 3 2 3 4 4 4 4
7 6 6 5 4 4 4 4 3 4 4 4 4 3 3 2 2 3 3 4 4 4
6 6 5 4 3 3 3 4 4 4 4 3 3 3 2 2 2 2 2 3 3 3
4 3 3 3 4 4 4 4 3 2 3 3 2 2 1 0 -0 1 1 2 2 2

GFSNIL_925_temp_051.txt.gz
Temp
19 19 19 19 19 18 17 16 14 12 12 12 12 11 12 11 10 8 8 8 8 7
17 19 18 17 17 17 16 15 14 12 11 11 11 10 10 9 7 7 6 6 6 6
19 17 16 16 16 15 12 12 11 10 11 10 10 10 8 7 6 6 5 5 5 5
17 16 14 14 14 14 12 11 11 11 10 9 9 8 6 6 5 5 4 5 4 4
17 15 15 14 14 13 12 11 11 10 9 7 7 5 5 4 4 4 4 3 4 4
15 13 13 12 12 12 11 11 9 8 7 6 5 5 4 4 4 4 4 4 3 4
12 11 10 10 9 9 8 8 6 6 6 5 5 4 4 4 5 4 3 3 3 3
10 10 9 9 8 7 6 5 5 5 5 4 5 5 5 4 3 3 3 3 3 3
12 12 10 9 8 8 7 7 5 5 5 4 4 4 4 3 3 2 2 3 3 5
10 9 9 9 8 8 7 7 5 5 5 5 4 4 3 2 2 3 4 5 5 6
10 9 9 8 7 6 6 6 5 4 4 4 4 4 3 3 2 4 4 5 5 5
10 9 8 8 7 6 5 4 5 5 5 6 6 4 3 3 3 3 4 4 5 5
9 8 7 5 4 4 5 6 6 6 6 5 5 4 2 2 1 1 2 2 3 3
6 5 4 4 5 6 6 6 5 4 4 4 4 3 1 0 -1 -1 -2 -1 -1 -0

GFSNIL_925_temp_054.txt.gz
Temp
19 19 19 19 20 19 18 17 16 15 14 14 13 13 12 12 12 11 10 9 7 9
20 18 18 16 18 19 18 17 16 15 14 13 12 12 12 12 11 10 8 7 7 7
18 18 18 16 17 17 17 15 14 13 13 12 11 11 11 10 9 8 7 6 6 6
18 17 18 16 16 16 15 13 13 12 11 10 10 10 9 8 6 6 5 5 5 5
18 18 17 16 15 15 14 13 12 11 10 10 9 8 7 6 5 5 4 5 5 5
17 15 15 14 13 13 12 12 11 11 10 9 8 7 6 6 5 5 5 5 5 4
14 14 12 12 11 11 10 10 9 8 8 7 6 6 6 5 5 5 5 4 4 4
12 12 11 10 9 8 8 7 7 6 6 6 6 5 5 4 4 4 3 3 3 3
11 10 9 8 7 7 6 6 5 5 5 4 4 4 4 4 4 3 3 3 3 4
11 10 9 9 8 7 7 6 6 5 5 4 4 4 4 3 3 3 3 4 4 5
10 9 9 9 8 6 6 6 5 5 5 5 5 4 4 3 3 3 4 4 4 4
10 9 8 8 7 6 6 5 5 5 5 5 5 4 3 2 2 2 2 2 2 2
9 9 6 7 6 6 6 6 7 6 6 5 3 2 2 2 1 -0 -0 -0 -1 -1
7 6 6 5 6 6 7 6 5 4 4 4 2 1 1 0 -1 -2 -3 -3 -3 -3

GFSNIL_925_temp_057.txt.gz
Temp
18 19 18 18 19 19 19 19 18 18 16 16 15 14 14 13 12 11 11 11 10 9
19 18 19 19 18 18 18 18 17 17 15 14 14 13 13 13 12 11 10 9 9 8
19 18 19 19 18 18 17 17 17 15 14 13 13 13 12 12 11 10 9 8 7 7
19 19 18 18 17 17 16 15 13 14 14 12 12 12 11 10 9 8 7 6 6 6
17 16 15 15 16 16 16 15 14 13 13 12 11 10 10 9 8 7 6 6 5 6
17 16 14 15 15 14 13 13 12 12 12 11 10 9 8 7 6 6 6 6 5 5
14 14 13 13 13 13 12 12 11 11 10 9 8 7 6 6 6 5 5 5 4 4
12 12 12 12 11 10 10 9 9 8 7 6 6 6 5 5 5 4 4 4 4 4
11 10 10 10 9 8 7 7 6 6 6 5 5 5 5 4 4 4 4 4 4 4
9 9 9 8 7 6 6 6 5 5 5 5 5 5 5 4 4 3 3 3 3 3
9 8 8 7 7 6 6 6 5 5 5 5 5 4 4 3 3 3 2 2 2 2
9 8 7 6 6 6 6 6 6 6 5 5 4 3 3 2 2 2 2 1 1 0
8 7 7 7 6 6 6 6 6 5 5 4 3 2 1 1 1 1 -0 -1 -1 -2
8 7 7 7 6 6 5 5 5 3 3 3 2 1 0 -0 -1 -2 -2 -3 -3 -3

GFSNIL_925_temp_063.txt.gz
Temp
12 12 13 13 14 14 14 15 16 16 16 17 17 16 15 14 13 13 12 13 13 13
12 12 13 13 13 14 15 15 15 16 16 16 16 16 14 16 14 13 12 12 12 11
12 12 13 13 13 13 14 14 15 14 15 16 16 15 15 14 13 12 12 12 11 11
13 13 13 13 13 14 14 15 14 14 14 14 14 14 12 12 12 12 11 11 10 9
14 14 14 14 15 14 14 14 15 14 13 14 13 12 12 12 11 11 10 10 8 8
14 14 15 13 16 13 14 14 14 14 13 12 12 12 12 11 11 10 9 9 7 7
15 14 14 14 14 13 13 14 14 16 14 13 12 11 11 10 9 8 7 7 6 6
15 14 14 13 13 13 13 13 13 13 12 11 10 10 10 9 8 7 6 6 5 4
15 14 13 13 12 13 12 12 12 12 11 10 9 9 9 8 6 6 5 4 4 3
13 12 12 12 12 11 11 10 9 9 9 8 8 7 7 6 5 5 4 3 3 2
11 10 10 10 9 8 8 8 8 7 7 7 6 5 5 4 4 3 3 2 1 2
10 10 9 8 7 7 7 7 6 6 5 5 4 4 3 3 3 2 1 1 0 0
9 8 7 7 6 6 6 5 4 4 4 4 3 3 3 3 2 1 0 -1 -1 -1
7 7 7 6 5 4 4 4 3 2 2 2 2 1 2 1 1 1 -1 -1 -2 -2

GFSNIL_925_temp_069.txt.gz
Temp
11 12 13 13 13 13 14 14 16 16 16 16 15 15 15 15 15 15 13 12 12 12
11 11 12 12 12 13 14 15 15 15 14 14 14 15 15 15 14 13 12 12 13 13
11 11 11 12 12 13 13 14 14 15 15 15 15 15 15 14 14 12 12 13 13 13
11 11 11 12 12 13 13 13 13 13 13 13 13 14 14 14 12 12 12 12 12 11
11 11 11 11 12 13 13 13 14 14 14 13 13 14 14 14 13 12 11 12 12 11
11 10 11 11 11 11 12 12 12 12 13 13 13 13 14 13 13 12 12 12 12 11
11 11 11 12 12 12 12 12 12 12 13 12 12 13 13 12 12 12 11 11 10 9
12 12 12 12 12 12 12 12 12 12 12 12 12 12 12 12 11 11 10 9 9 8
13 12 12 12 12 12 12 12 13 12 12 12 12 12 12 12 11 10 8 7 7 6
13 13 12 12 12 12 12 12 12 12 12 12 12 12 11 10 10 8 7 7 5 4
13 13 13 13 12 12 12 12 12 12 12 11 11 10 9 8 7 6 5 5 4 4
14 13 13 13 12 12 12 11 11 10 10 9 8 7 6 6 5 4 2 2 2 2
13 13 12 11 11 11 10 9 8 7 6 6 5 4 5 5 3 1 -0 -1 -1 -1
11 11 11 10 9 8 7 6 4 4 3 3 3 3 4 4 3 1 -2 -2 -3 -3

GFSNIL_925_temp_072.txt.gz
Temp
15 14 14 13 14 13 13 13 13 14 15 15 15 16 15 14 15 15 14 14 15 15
15 15 15 15 15 14 14 14 13 13 13 14 14 15 14 15 15 15 15 15 15 15
15 15 15 15 15 15 15 15 15 14 14 14 15 15 15 15 15 15 15 15 15 14
15 15 14 15 15 15 15 15 15 14 15 15 16 16 15 15 15 16 15 15 14 14
15 15 15 14 14 15 15 15 15 15 15 15 15 15 15 15 15 15 15 14 13 12
15 15 14 14 14 15 15 15 15 15 15 15 15 15 15 15 15 15 13 12 12 12
15 15 14 15 14 14 15 15 15 15 14 14 14 14 14 13 13 13 13 13 12 12
15 15 15 14 14 14 14 14 15 15 14 14 13 12 12 12 12 12 12 11 11 12
16 15 15 15 15 14 14 14 15 15 15 14 13 13 13 13 11 12 12 11 10 10
17 16 16 15 15 15 15 15 14 14 15 14 14 13 12 13 12 11 11 10 9 7
17 17 16 16 15 15 15 15 14 14 14 14 12 12 13 13 11 9 8 7 6 6
18 17 16 16 16 15 14 13 13 12 12 12 12 11 11 10 8 6 5 3 3 3
18 17 17 16 15 13 13 12 11 11 10 9 9 8 7 7 6 2 1 1 0 1
17 17 15 12 12 11 10 9 7 6 5 5 5 3 4 4 2 -0 -2 -3 -3 -2

GFSNIL_925_temp_075.txt.gz
Temp
15 15 16 15 15 14 12 12 12 12 12 14 14 13 14 15 15 15 15 15 15 16
15 15 15 15 14 14 14 14 13 12 13 13 14 13 14 14 14 15 15 15 15 15
16 16 16 15 15 15 14 14 14 13 13 13 13 14 14 15 15 14 15 15 15 15
17 17 17 16 16 16 15 15 15 14 14 15 15 15 15 15 15 15 15 15 15 15
18 17 17 17 17 16 16 16 16 16 15 15 15 15 15 15 15 15 16 16 16 16
18 17 17 17 17 17 16 16 16 16 16 16 16 16 16 16 16 16 16 16 16 16
18 17 17 17 16 16 16 16 16 16 16 16 16 16 16 16 16 16 16 16 16 15
18 18 17 17 17 17 16 16 16 16 16 16 16 16 16 16 16 16 15 15 14 13
19 18 18 17 17 17 16 16 17 16 17 16 16 16 16 15 14 13 13 12 12 11
19 19 18 17 17 17 16 16 16 16 16 16 16 16 15 15 13 12 12 12 11 11
20 19 19 18 18 17 17 16 16 16 16 16 16 16 15 14 13 12 12 11 11 10
20 20 19 19 18 18 17 16 16 16 15 15 15 15 15 14 12 11 10 8 7 6
21 20 20 19 18 17 17 16 16 14 13 14 13 13 12 12 10 6 4 3 1 1
21 20 19 19 18 17 13 12 11 10 9 9 8 8 7 7 6 3 -1 -2 -2 -2

GFSNIL_925_temp_078.txt.gz
Temp
13 13 13 13 13 13 13 13 14 13 13 13 14 15 15 15 15 15 15 15 15 15
15 15 13 13 13 13 13 14 13 13 13 13 14 15 15 15 14 14 14 15 15 15
15 15 15 15 14 13 13 13 14 14 13 12 12 14 14 14 15 14 14 14 14 14
15 15 15 15 15 15 15 14 13 13 13 12 12 13 13 13 14 13 13 14 14 14
16 16 15 15 15 15 15 15 14 14 13 12 13 13 13 13 14 14 14 14 14 14
18 17 17 16 16 16 15 15 15 14 14 14 13 13 13 13 14 14 15 15 15 15
18 18 17 17 17 16 16 16 15 15 15 14 14 14 14 15 15 15 15 15 15 15
18 18 18 17 17 17 17 16 16 16 15 16 15 15 15 15 15 15 15 15 15 15
19 18 18 17 17 17 16 16 17 16 16 16 16 16 15 15 15 15 15 15 15 15
20 19 18 18 17 17 17 16 16 16 16 16 16 16 16 16 16 15 15 15 14 14
20 20 19 18 18 17 17 17 16 16 16 16 16 16 16 16 16 15 15 14 13 13
21 20 20 19 18 18 17 17 16 16 16 16 16 16 16 16 16 14 13 12 12 11
22 21 20 19 19 18 17 17 16 16 16 16 15 15 16 16 14 11 9 7 6 4
16 21 20 20 19 19 18 17 16 13 10 11 12 12 13 14 12 9 3 1 -0 -1

GFSNIL_925_temp_081.txt.gz
Temp
13 13 13 13 13 12 12 13 14 15 15 15 16 16 16 16 16 16 16 16 15 16
13 13 13 13 13 13 13 13 13 14 14 14 15 15 15 15 15 15 15 15 15 15
13 13 13 13 13 13 13 13 13 13 13 13 14 14 14 15 15 14 15 15 15 15
14 14 14 13 13 13 13 13 13 13 12 12 12 13 13 14 14 13 13 13 14 14
14 15 15 14 13 13 13 13 14 13 12 12 12 12 12 12 13 13 13 13 13 13
14 14 14 14 14 14 13 13 13 13 13 13 12 12 12 12 12 13 13 13 13 13
14 14 14 14 14 14 14 14 13 13 13 13 13 12 12 12 12 12 13 13 13 13
16 16 15 15 14 14 14 14 14 14 13 13 12 12 12 12 12 12 12 13 13 13
18 17 16 16 16 15 15 14 14 14 14 13 13 13 13 13 12 12 12 12 13 13
19 18 17 16 16 16 16 15 15 14 14 14 14 14 14 13 13 13 13 13 13 13
17 18 17 17 16 16 16 15 15 15 15 14 14 14 15 15 14 14 13 13 13 13
10 11 15 17 17 16 16 15 15 15 15 15 15 15 15 15 15 13 13 13 14 14
6 6 8 12 17 17 16 16 15 15 15 15 15 15 15 15 15 12 12 11 11 11
4 3 4 7 10 16 16 16 16 15 14 13 14 14 14 14 14 13 10 8 6 5

GFSNIL_925_temp_084.txt.gz
Temp
13 13 12 12 13 13 13 13 14 14 15 15 16 16 16 16 16 17 17 17 16 16
13 13 13 12 13 13 13 13 13 14 14 15 15 15 16 16 16 16 16 16 16 16
13 13 13 13 13 13 13 13 13 13 14 14 15 15 15 15 16 15 16 16 16 16
13 13 13 13 13 13 13 13 13 13 13 13 14 14 15 14 14 15 15 15 15 15
14 13 12 12 13 13 13 13 13 13 13 13 13 13 13 13 13 13 13 13 13 14
13 13 13 13 13 13 13 13 13 13 13 12 12 12 12 12 13 13 12 13 13 13
13 13 13 14 14 14 14 14 13 13 13 12 12 12 12 11 12 12 12 12 12 13
14 14 13 14 14 14 14 14 13 14 13 13 12 12 12 11 11 11 11 12 12 12
14 13 13 13 14 13 13 13 13 13 13 13 13 13 12 12 11 11 11 11 11 11
11 13 14 14 13 13 13 13 13 13 13 13 12 13 13 13 12 11 11 11 11 11
8 8 10 12 14 14 14 13 13 13 13 13 13 13 13 13 13 12 12 11 11 11
5 6 6 7 8 10 14 14 14 14 13 13 13 13 13 13 13 12 12 12 12 11
2 2 4 4 6 7 9 13 14 14 14 13 13 14 14 14 12 11 11 12 11 12
-1 -0 0 0 2 4 6 8 12 13 12 12 12 12 13 13 13 12 11 10 10 9

GFSNIL_925_temp_087.txt.gz
Temp
13 12 12 12 12 12 12 12 13 13 14 14 15 15 15 15 16 16 14 15 16 16
13 13 13 13 13 13 14 13 13 14 14 14 15 15 15 15 16 14 14 15 15 15
13 13 14 13 13 13 13 13 13 13 14 14 14 14 15 15 14 13 13 13 14 15
13 13 13 13 13 13 13 13 13 14 14 14 14 14 14 14 13 13 13 14 14 15
13 14 13 13 13 13 13 13 13 13 13 14 13 13 13 13 13 13 13 13 13 13
13 13 14 13 13 13 13 13 13 13 13 12 12 12 13 13 13 13 13 13 13 13
12 13 13 13 13 13 13 13 13 14 14 13 13 12 12 12 12 12 12 13 13 13
13 12 13 12 12 12 12 13 13 13 13 14 14 13 13 12 11 11 12 12 12 12
12 13 13 13 12 12 13 12 13 13 12 12 13 13 14 14 12 11 11 11 11 11
7 8 9 10 12 12 12 12 12 12 12 12 12 12 13 13 12 11 11 11 11 11
4 5 6 6 7 8 10 12 12 12 12 12 12 12 12 12 12 11 11 11 11 10
2 3 3 3 3 4 5 7 9 12 12 12 12 12 12 12 11 11 11 11 11 11
-0 0 0 0 1 2 3 4 5 7 10 10 9 8 10 11 11 11 11 11 11 11
-2 -2 -2 -1 -1 -0 1 2 2 3 2 2 0 2 4 6 9 10 11 10 10 9

GFSNIL_925_temp_090.txt.gz
Temp
13 13 13 14 13 12 12 12 13 13 12 12 11 12 13 14 15 15 16 15 15 15
12 12 13 13 13 11 12 12 13 13 13 12 12 13 14 15 15 15 15 15 15 15
12 12 12 12 12 12 12 13 13 13 13 13 13 13 14 14 15 15 15 14 15 15
13 12 13 13 12 13 13 12 13 13 13 13 13 14 14 14 14 14 13 13 14 15
12 12 13 14 14 13 13 13 13 13 13 13 13 14 14 14 13 13 13 13 13 13
12 12 13 14 14 15 14 13 13 13 13 13 13 13 13 13 13 13 13 13 13 12
12 13 13 14 14 14 14 14 14 13 13 13 13 13 13 13 12 12 12 13 13 12
13 12 13 13 13 14 13 13 13 14 14 14 14 13 13 12 12 12 11 11 12 12
10 12 12 12 12 13 12 12 12 12 12 13 13 13 13 14 13 12 11 11 11 11
6 6 7 8 10 10 10 12 12 12 12 12 12 12 12 13 12 12 11 12 12 11
3 4 4 5 5 6 7 8 9 10 11 12 12 12 12 12 12 11 11 11 11 11
0 1 1 1 2 3 4 5 5 5 6 7 8 5 7 9 10 11 11 11 11 11
-1 -2 -2 -2 -1 0 2 2 2 1 1 1 1 1 4 6 7 8 10 10 10 10
-3 -2 -3 -3 -2 -1 -0 -0 -1 -1 -2 -2 -2 -2 -0 3 5 6 5 3 1 -0

GFSNIL_925_temp_093.txt.gz
Temp
12 13 14 13 13 13 12 12 12 12 12 12 12 11 11 11 12 13 14 15 15 15
12 13 13 13 14 14 13 12 12 12 12 12 11 11 10 11 12 15 14 14 15 15
12 12 13 13 12 13 13 12 12 12 12 11 11 11 11 11 13 13 14 13 15 15
13 12 12 12 13 13 12 12 12 12 12 12 11 11 11 12 13 13 13 13 14 15
13 13 12 12 12 12 12 12 12 12 12 12 12 12 12 12 12 12 13 13 12 13
13 13 12 13 13 13 13 12 12 12 12 12 12 12 12 13 12 12 13 13 13 13
12 12 12 13 14 14 14 14 13 13 13 12 12 12 12 12 12 12 12 13 13 13
12 12 12 12 13 13 14 13 13 12 12 13 13 12 12 12 12 12 12 12 12 12
10 10 10 11 12 12 12 14 13 13 13 12 12 12 13 13 12 12 12 12 12 12
5 5 6 7 8 9 9 10 11 11 12 12 11 11 11 12 12 12 12 12 12 12
2 2 3 3 3 4 5 6 6 7 7 6 5 5 7 10 11 11 11 11 11 11
0 1 1 1 1 2 3 3 2 1 2 1 1 3 5 7 9 9 9 10 10 9
-1 -1 -1 -1 -0 1 1 0 -1 -2 -2 -2 -2 -0 2 5 5 5 5 5 3 1
-2 -2 -2 -2 -2 -1 -1 -1 -2 -3 -3 -4 -4 -4 -3 0 1 -0 -1 -3 -4 -4

GFSNIL_925_temp_096.txt.gz
Temp
16 14 16 15 14 13 12 12 13 12 12 13 12 12 12 13 12 12 12 14 15 16
15 14 16 16 16 15 13 12 12 12 12 12 12 11 12 12 12 12 12 13 14 15
13 13 15 15 15 14 14 12 12 12 12 12 11 11 11 11 11 12 12 12 13 14
13 13 14 15 14 13 12 12 12 12 12 11 11 11 10 10 10 11 12 13 13 13
13 13 13 14 14 14 12 12 13 12 12 12 11 11 10 10 11 11 14 14 12 13
14 14 13 13 14 14 14 13 13 14 12 12 12 11 11 12 12 13 14 13 13 14
13 13 13 14 14 13 13 14 14 14 14 14 13 13 13 13 14 13 13 12 13 13
12 13 13 14 15 14 14 14 13 13 13 13 13 13 13 13 12 12 12 12 12 12
7 10 10 12 12 13 12 12 13 13 13 13 11 12 12 13 12 12 12 13 13 13
3 4 5 6 8 8 8 9 10 10 10 9 7 7 10 12 12 12 13 13 13 14
2 1 2 3 3 4 5 4 4 4 3 3 3 5 6 9 10 10 10 10 9 10
0 1 1 1 2 2 2 1 -0 -1 -0 -1 0 2 6 7 7 6 5 4 3 4
-0 0 0 1 2 1 0 -0 -1 -2 -2 -2 -2 -1 2 3 3 2 -0 -1 -1 -0
-2 -1 -1 -1 -0 0 0 -0 -1 -2 -2 -3 -3 -4 -2 -1 -1 -2 -3 -4 -4 -5

GFSNIL_925_temp_099.txt.gz
Temp
20 20 19 17 17 14 13 13 13 13 13 13 13 13 13 13 14 14 15 15 15 15
20 19 19 17 16 14 14 13 13 12 13 13 12 13 13 13 13 14 14 13 13 14
19 17 18 16 15 15 15 13 13 12 12 12 12 12 12 11 12 12 12 12 13 14
18 17 17 17 16 15 15 13 12 12 12 12 12 12 12 12 11 11 12 12 13 14
16 16 15 16 16 16 15 14 13 12 12 12 11 11 11 11 10 11 11 12 12 12
14 15 14 15 15 14 14 14 14 13 12 11 11 11 11 11 11 11 11 11 12 14
14 14 14 15 15 15 15 15 14 14 13 12 12 11 11 11 11 12 13 13 14 16
13 13 13 13 15 15 15 14 15 15 14 14 14 11 12 12 12 13 13 14 14 14
8 9 10 11 13 13 12 13 13 14 13 12 10 10 12 13 13 13 13 13 13 12
3 4 5 6 8 8 9 9 8 8 8 7 6 8 11 12 12 12 12 11 12 12
2 2 3 3 3 4 4 4 3 2 2 2 3 5 7 9 9 9 8 8 8 8
0 1 2 1 1 0 1 -0 -1 -1 -0 -0 0 2 4 5 6 4 2 1 2 2
-0 -0 0 0 0 -0 0 -1 -1 -1 -1 -2 -2 -0 2 2 2 -0 -1 -2 -2 -2
-1 -1 -0 -0 -0 0 -0 -0 -1 -2 -2 -3 -3 -4 -2 -1 -1 -2 -3 -4 -4 -4

GFSNIL_925_temp_102.txt.gz
Temp
20 21 20 18 18 14 14 13 13 13 13 13 13 13 13 13 13 14 14 15 16 17
20 21 20 18 17 15 13 13 13 13 12 13 13 13 13 13 13 14 14 15 16 16
19 20 20 18 16 15 14 13 13 13 13 13 13 13 13 14 14 14 14 14 14 15
18 19 19 17 16 15 14 13 13 13 12 12 12 13 13 12 12 13 12 13 13 13
16 18 18 16 15 16 14 14 13 12 12 12 12 12 12 12 12 13 12 12 12 12
15 17 17 16 15 16 14 13 13 13 12 12 11 12 12 12 12 12 12 12 12 12
14 15 15 15 16 15 14 14 13 13 12 12 12 11 11 11 11 11 11 11 11 11
12 14 14 14 15 15 15 15 15 14 13 12 12 11 11 11 11 11 11 12 12 12
6 8 10 12 13 13 13 13 13 11 11 9 9 10 11 11 11 11 12 13 13 13
2 3 4 5 6 8 9 10 8 6 7 6 5 7 10 11 11 11 11 11 11 11
1 1 1 1 1 1 3 3 3 2 2 3 3 5 8 9 10 9 8 7 7 7
0 0 0 0 -0 -0 -0 -1 -1 -0 -0 1 2 3 4 6 4 3 1 1 2 2
-0 -0 -0 0 -0 -0 -0 -1 -2 -2 -1 -2 -1 1 1 2 1 -1 -2 -2 -2 -1
-1 -1 -0 -0 -0 -1 -1 -1 -2 -3 -3 -3 -3 -2 -1 -0 0 -1 -2 -3 -4 -4

GFSNIL_925_temp_105.txt.gz
Temp
18 19 18 18 17 15 14 14 13 13 13 13 13 13 13 13 13 13 13 13 13 14
19 19 19 18 18 16 14 14 15 13 13 12 13 13 13 13 13 13 13 13 14 13
19 19 19 18 18 16 15 14 13 13 13 12 13 13 13 13 13 13 13 13 13 13
18 18 18 18 17 16 15 14 13 13 12 12 13 13 13 13 13 13 13 13 13 13
16 17 18 17 16 16 15 13 12 13 12 12 13 13 13 13 13 13 13 13 13 13
16 16 16 16 16 15 15 13 13 13 13 12 13 13 13 13 13 12 13 13 13 13
14 15 15 16 15 15 14 13 13 13 13 12 12 13 12 12 12 13 12 12 13 12
7 12 13 14 15 15 14 14 13 13 12 12 11 11 11 12 11 12 11 12 12 12
3 5 7 9 11 11 12 13 12 11 11 11 10 10 11 11 11 11 11 11 11 11
1 1 2 3 5 4 4 5 6 6 6 5 7 9 11 11 11 11 10 10 10 10
0 1 1 1 0 1 0 0 0 1 2 3 3 6 8 9 9 8 6 6 6 6
-1 -0 -0 -0 -1 -1 -0 -2 -2 -2 -1 -0 0 3 5 6 4 2 1 1 2 2
-2 -1 -1 -1 -1 -1 -2 -2 -2 -2 -2 -2 -1 -1 0 2 1 -1 -2 -2 -1 1
-3 -2 -2 -1 -2 -2 -2 -2 -3 -3 -3 -3 -2 -2 -1 -1 -2 -2 -3 -3 -3 -3

GFSNIL_925_temp_111.txt.gz
Temp
15 16 16 16 16 16 16 16 17 16 16 16 16 15 15 15 15 14 13 13 14 13
13 15 16 16 16 16 17 16 16 15 15 16 16 15 16 14 13 13 14 14 14 13
10 14 16 16 15 15 16 16 16 15 15 16 16 15 14 13 13 13 13 13 13 13
12 14 15 16 15 15 16 15 15 15 15 16 15 14 13 12 12 12 13 13 13 13
8 12 15 15 15 15 14 14 14 14 15 15 14 13 13 12 12 12 13 13 13 12
4 7 10 11 14 14 14 14 13 13 14 13 13 13 12 12 12 12 13 13 13 13
2 3 5 7 11 13 13 13 13 13 13 13 13 13 12 12 12 12 13 13 13 13
1 2 3 4 7 9 12 13 13 13 12 12 12 12 12 12 12 12 12 12 12 12
0 0 2 1 2 3 4 7 10 12 12 12 12 12 12 12 12 12 12 12 12 12
-1 -1 -1 1 1 2 1 1 1 3 5 6 7 10 11 11 11 11 11 11 12 12
-2 -2 -1 -1 -1 -0 1 0 -0 -0 -0 1 1 4 8 10 10 9 8 8 9 9
-3 -3 -2 -2 -2 -2 -1 -0 -1 -0 -1 -1 -1 1 2 7 6 4 3 3 4 5
-4 -4 -3 -3 -3 -3 -3 -3 -3 -2 -1 -1 -2 -1 -0 1 0 -0 -1 -0 1 2
-5 -5 -4 -4 -3 -3 -3 -3 -3 -4 -3 -3 -3 -2 -2 -1 -0 -2 -3 -3 -3 -2

GFSNIL_925_temp_114.txt.gz
Temp
13 14 15 16 16 16 15 15 16 16 15 15 15 16 16 15 14 14 15 14 14 14
10 12 14 15 16 16 16 16 16 16 15 15 15 16 15 15 14 14 14 14 14 13
8 11 13 14 15 16 16 15 16 16 15 14 15 15 14 14 14 14 13 14 13 13
6 9 11 13 15 15 16 15 15 15 15 14 14 14 14 14 14 13 13 13 13 13
4 6 8 11 12 15 16 15 15 14 14 14 14 14 14 14 14 13 13 13 12 13
2 3 4 7 9 12 14 14 14 13 13 13 13 13 14 14 13 13 12 12 13 13
1 1 2 3 6 9 11 12 13 13 13 13 13 13 13 13 13 13 12 12 12 13
-0 -0 0 1 2 5 7 8 10 12 13 13 12 12 12 12 13 12 12 12 12 13
-1 -1 -1 -1 0 1 4 4 4 5 7 6 8 9 12 12 12 12 12 12 12 12
-2 -2 -2 -2 -1 -1 -0 1 2 2 3 1 1 4 9 10 12 12 12 12 12 12
-3 -3 -3 -2 -2 -2 -2 -2 -1 -0 0 2 1 1 4 5 8 10 9 9 10 10
-5 -4 -3 -3 -3 -3 -3 -3 -3 -3 -2 -1 -0 1 1 2 1 1 1 3 5 6
-6 -5 -5 -4 -3 -4 -3 -3 -3 -3 -3 -3 -3 -1 0 1 0 -1 -1 -1 -0 0
-5 -5 -5 -4 -4 -4 -4 -4 -4 -4 -4 -4 -4 -4 -3 -1 -2 -2 -3 -3 -3 -3

GFSNIL_925_temp_117.txt.gz
Temp
12 13 14 16 16 16 16 16 16 15 15 16 15 15 15 15 15 15 15 14 14 14
9 10 11 13 15 16 16 15 16 15 15 15 15 15 15 15 15 15 15 14 14 14
6 8 10 11 13 14 15 15 15 15 15 15 15 15 14 15 15 14 14 14 14 14
4 5 7 9 10 12 14 15 15 15 15 15 15 15 14 14 14 14 14 14 14 14
2 3 4 5 8 11 13 14 15 15 14 14 14 14 14 14 14 14 14 13 13 13
1 1 2 3 4 7 10 13 13 14 14 14 14 14 13 13 13 13 13 13 13 13
-0 -0 0 1 2 4 5 8 10 12 13 13 13 13 13 13 13 13 13 13 13 13
-1 -1 -1 -0 0 1 2 3 5 6 7 8 8 8 10 12 12 12 12 12 13 12
-2 -2 -2 -1 -1 -1 -0 -0 2 1 3 4 4 5 7 10 11 12 12 12 12 12
-3 -2 -2 -2 -2 -2 -2 -1 -1 -1 -1 -0 1 2 5 8 9 9 10 11 12 12
-4 -3 -3 -3 -3 -3 -3 -3 -3 -3 -2 -2 -1 0 2 5 5 5 2 3 6 8
-5 -4 -4 -4 -3 -3 -3 -3 -4 -4 -4 -3 -3 -1 -0 1 4 2 1 0 0 2
-6 -5 -5 -5 -4 -4 -3 -3 -3 -4 -4 -4 -4 -3 -1 -0 -1 -1 -1 -1 -1 -2
-6 -6 -5 -5 -5 -5 -4 -4 -4 -4 -4 -4 -5 -4 -4 -3 -3 -4 -4 -4 -4 -3

GFSNIL_925_temp_120.txt.gz
Temp
10 12 14 16 17 18 17 16 16 16 16 16 16 16 16 16 16 16 16 16 15 16
8 9 10 12 14 15 16 16 16 16 16 16 16 16 16 16 16 16 16 16 16 15
6 6 8 9 11 12 14 15 16 16 16 15 16 16 15 15 15 15 15 15 15 15
4 4 5 6 7 9 11 13 15 15 15 15 15 15 15 15 15 15 15 15 15 15
1 2 3 3 4 6 8 11 13 14 15 15 15 15 14 14 14 15 15 15 15 14
1 1 1 1 2 3 4 7 10 12 13 14 14 14 14 14 14 14 14 14 14 14
-0 0 0 0 1 1 2 3 4 6 7 8 10 10 12 12 13 14 14 14 14 14
-0 -0 -0 -0 -0 -0 -0 0 1 1 3 4 4 4 7 9 11 12 13 13 13 13
0 -1 -1 -1 -1 -1 -1 -1 -1 -1 -0 -0 1 2 3 6 7 9 11 12 13 13
-1 -1 -1 -2 -2 -2 -2 -2 -2 -2 -2 -2 -2 0 1 2 4 6 6 6 8 9
-2 -2 -2 -2 -2 -2 -2 -2 -3 -3 -3 -3 -3 -0 1 0 0 1 2 2 3 4
-4 -3 -3 -3 -3 -2 -2 -3 -3 -3 -4 -3 -4 -3 -1 -0 -1 -2 -2 -2 -1 1
-5 -4 -4 -4 -3 -3 -3 -3 -3 -3 -4 -4 -4 -4 -4 -3 -3 -3 -4 -3 -3 -2
-5 -5 -4 -4 -4 -4 -3 -3 -3 -3 -4 -4 -4 -4 -5 -5 -4 -4 -4 -5 -5 -5

GFSNIL_925_temp_123.txt.gz
Temp
11 14 14 15 14 17 17 17 17 17 18 18 17 16 16 16 16 16 16 16 17 18
8 10 12 12 14 14 14 16 17 17 17 17 16 16 16 16 17 16 16 17 17 17
6 6 8 10 10 10 12 14 16 17 16 16 16 16 16 16 16 17 17 16 17 17
3 4 5 5 6 7 9 11 13 15 16 16 16 15 16 16 16 16 16 16 15 16
2 2 2 2 3 4 5 6 8 11 14 14 15 15 15 15 15 15 15 15 17 15
1 1 1 1 1 2 2 3 4 6 7 7 9 11 11 12 14 15 15 15 15 15
0 0 1 0 0 0 0 1 1 2 2 2 3 5 7 9 11 12 13 14 14 15
1 1 -0 -0 -1 -1 -1 -1 -0 -0 0 0 1 1 3 6 6 7 9 11 13 14
1 1 -0 -1 -1 -1 -2 -2 -1 -1 -1 -2 -2 -0 1 2 3 3 4 5 8 10
-0 -0 -0 -0 -1 -1 -2 -2 -3 -3 -2 -3 -3 -1 -0 0 1 0 0 -0 1 3
-2 -2 -2 -2 -2 -2 -2 -2 -3 -3 -3 -3 -4 -3 -2 -1 -1 -1 -2 -2 -2 -1
-3 -3 -3 -3 -2 -2 -2 -2 -3 -3 -3 -3 -4 -4 -3 -2 -3 -3 -3 -3 -3 -3
-4 -3 -3 -3 -3 -3 -2 -3 -3 -3 -3 -4 -4 -4 -4 -4 -3 -2 -3 -3 -4 -4
-3 -3 -3 -3 -3 -3 -2 -2 -3 -3 -3 -3 -4 -4 -4 -4 -4 -4 -4 -4 -4 -4

GFSNIL_925_temp_126.txt.gz
Temp
10 11 13 15 14 19 19 19 18 17 17 17 17 16 16 16 16 16 17 16 17 17
7 9 9 11 14 11 14 15 18 17 17 17 18 17 16 16 16 16 16 17 17 17
4 5 6 9 11 10 11 14 11 15 17 18 18 16 16 16 16 16 16 16 16 16
2 2 3 5 5 8 9 9 11 11 12 14 15 15 16 16 16 16 16 16 16 16
1 1 1 2 3 3 5 8 7 8 8 8 10 11 13 13 15 16 16 16 16 15
-0 0 0 0 1 2 2 3 4 3 3 3 5 7 8 10 10 12 12 14 15 15
-0 -1 -0 -1 -1 -0 0 0 1 1 1 1 2 4 5 5 6 7 8 9 11 12
-0 -0 -1 -1 -1 -1 -1 -1 -1 -1 -1 -1 -1 -0 1 2 3 4 5 5 6 6
-1 -1 -1 -1 -1 -2 -2 -2 -2 -2 -3 -3 -3 -2 -1 0 0 0 0 1 2 3
-2 -2 -1 -1 -2 -2 -2 -2 -3 -3 -3 -3 -3 -2 -2 -1 -2 -2 -2 -2 -2 -1
-2 -2 -2 -2 -2 -2 -2 -3 -3 -3 -3 -4 -4 -3 -2 -2 -2 -3 -3 -3 -4 -3
-3 -3 -2 -2 -2 -2 -2 -2 -3 -4 -4 -4 -4 -4 -4 -3 -3 -3 -3 -3 -4 -4
-2 -3 -3 -3 -3 -3 -3 -3 -3 -3 -4 -4 -5 -5 -4 -4 -4 -3 -4 -4 -4 -4
-1 -1 -2 -3 -4 -4 -3 -3 -4 -3 -4 -4 -5 -6 -5 -5 -5 -4 -4 -4 -4 -4

GFSNIL_925_temp_129.txt.gz
Temp
6 8 10 11 13 13 15 15 17 17 17 17 17 16 16 16 16 17 17 17 17 17
4 6 9 10 11 13 14 13 11 16 16 16 16 16 17 16 16 16 17 17 17 17
2 3 5 5 8 11 12 12 11 11 13 16 16 17 17 16 16 16 16 16 16 17
1 1 2 2 4 5 6 12 12 7 9 8 11 14 14 15 15 16 16 16 16 15
0 0 -0 0 1 1 1 3 8 5 8 9 3 8 9 10 10 12 11 13 15 15
-0 -1 -1 -1 -1 1 -0 -0 3 5 3 3 3 5 6 6 7 7 7 8 7 7
-1 -1 -1 -1 -2 -1 -0 -0 -1 -1 -0 0 1 2 2 4 4 4 4 4 4 3
-1 -1 -1 -2 -2 -2 -2 -2 -2 -2 -2 -1 -1 -0 0 0 1 1 2 2 2 1
-2 -2 -2 -2 -2 -3 -3 -3 -3 -3 -3 -3 -2 -2 -2 -0 -1 -2 -2 -2 -1 -1
-2 -2 -2 -2 -2 -3 -3 -4 -4 -4 -4 -4 -3 -3 -2 -2 -3 -3 -3 -3 -3 -3
-3 -3 -3 -2 -3 -3 -3 -4 -4 -5 -5 -5 -4 -4 -3 -3 -3 -4 -4 -4 -4 -4
-3 -4 -4 -4 -3 -4 -3 -3 -4 -5 -6 -6 -5 -5 -4 -4 -4 -4 -4 -4 -4 -4
-3 -4 -4 -5 -5 -5 -5 -5 -5 -5 -7 -7 -7 -5 -5 -5 -5 -4 -4 -4 -4 -4
-3 -3 -4 -4 -5 -5 -6 -6 -6 -7 -7 -8 -8 -7 -6 -6 -5 -5 -4 -4 -4 -4

GFSNIL_925_temp_132.txt.gz
Temp
2 3 5 6 8 9 10 11 13 13 14 14 13 17 17 17 18 17 18 18 18 17
1 2 4 6 8 9 11 12 13 13 14 15 15 17 18 16 16 17 17 17 17 17
-0 1 2 3 6 7 9 10 11 12 13 14 14 16 16 16 16 16 16 16 16 17
-1 -0 0 1 2 3 5 7 8 9 8 8 7 14 15 15 15 15 15 16 16 16
-1 -1 -1 -0 0 0 0 1 1 5 9 7 5 5 8 8 12 12 11 11 13 13
-2 -2 -1 -1 -1 -1 -1 -0 -1 -0 1 6 4 1 4 4 3 6 5 5 4 5
-2 -2 -2 -2 -2 -2 -2 -2 -2 -1 -0 1 -0 0 -0 3 2 0 1 1 4 1
-2 -2 -2 -3 -3 -3 -3 -3 -3 -2 -2 -2 -1 -0 0 1 -0 -0 -0 -1 -1 -1
-3 -3 -3 -3 -4 -4 -4 -4 -4 -4 -3 -3 -3 -2 -2 -0 -0 -1 -2 -2 -2 -1
-4 -4 -4 -4 -3 -4 -5 -5 -5 -5 -4 -4 -4 -3 -3 -2 -3 -3 -3 -3 -3 -3
-5 -5 -5 -5 -5 -5 -5 -7 -7 -7 -6 -5 -5 -4 -4 -4 -4 -4 -4 -4 -4 -4
-5 -6 -6 -7 -7 -7 -7 -7 -8 -9 -8 -8 -6 -5 -5 -5 -4 -4 -4 -4 -4 -4
-5 -6 -7 -7 -8 -8 -8 -8 -8 -8 -8 -9 -8 -6 -5 -5 -6 -5 -5 -4 -4 -4
-5 -6 -6 -7 -8 -8 -8 -8 -9 -9 -8 -8 -8 -7 -6 -6 -5 -5 -5 -5 -5 -5